[[{"header":{"parameterUnit":"m.s-1","parameterCategory":1,"la1":30.2991,"la2":30.254,"lo1":-89.0895,"lo2":-89.0444,"dx":0.0017,"dy":0.0017,"nx":28,"ny":28,"refTime":"2023-01-13T09:00:00:Z","depth":0,"parameterNumber":2,"parameterNumberName":"U-component_of_WINDS"},"data":[0,0,0,0,0,0,0,0,0,0,0,0,0,0,0,0,0,0,0,0,0,0,0,0,0,0,0,0,0,0,0,0,0,0,0,0,0,0,0,0,0,0,0,0,0,0,0,0,0,0,0,0,0,0,0,0,0,0,3.259,3.2591,0,3.2655,3.2656,3.2657,3.2646,3.2644,3.2643,3.2642,3.2709,3.2711,3.2714,0,0,0,0,0,0,0,0,0,0,0,0,0,3.2459,3.2461,3.259,3.2591,3.2592,3.2655,3.2656,3.2657,3.2646,3.2644,3.2643,3.2642,3.2708,3.2711,3.2715,0,0,0,0,0,0,0,0,0,0,0,0,0,3.2519,3.2462,3.259,3.2594,3.2595,3.2655,3.2656,3.2657,3.2646,3.2644,3.2643,3.2641,3.2707,3.2711,3.2715,3.2775,0,0,3.2728,3.273,0,0,0,0,0,0,0,0,3.2516,3.2524,3.2593,3.2594,3.2595,3.2641,3.2634,3.2697,3.2647,3.2627,3.2642,3.264,3.2687,3.2693,3.2709,3.2778,3.2781,3.2728,3.2731,3.2733,3.2734,0,0,0,0,0,0,0,3.2511,3.2521,3.2616,3.2594,3.2595,3.2593,3.26,3.2646,3.2666,3.2628,3.2628,3.2635,3.2688,3.2705,3.2711,3.2782,3.2728,3.2732,3.2735,3.2736,3.2908,3.2909,0,0,0,0,0,0,3.2506,3.2518,3.2614,3.2618,3.255,3.2597,3.2604,3.2628,3.2665,3.2669,3.2637,3.2635,3.2699,3.2706,3.2713,3.2788,3.2733,3.2737,3.2739,3.2906,3.2908,3.291,0,0,0,0,0,0,3.2503,3.2515,3.2611,3.2568,3.258,3.2601,3.2627,3.263,3.2647,3.2672,3.2675,3.2651,3.2698,3.2707,3.2761,3.279,3.2739,3.2742,3.2903,3.2906,3.2909,3.2937,0,0,0,0,0,0,3.2499,3.2514,3.2536,3.2568,3.2582,3.2657,3.2629,3.2632,3.2654,3.2652,3.2686,3.269,3.2697,3.2754,3.2765,3.2795,3.2746,3.2901,3.2905,3.2908,3.2933,3.294,3.2946,0,0,0,0,0,3.2495,3.254,3.2537,3.2549,3.261,3.2659,3.2667,3.2674,3.2657,3.268,3.2697,3.2688,3.2785,3.276,3.2772,3.2803,3.2899,3.2903,3.2908,3.293,3.2939,3.2946,0,0,0,0,0,0,3.251,3.2545,3.2541,3.2599,3.2626,3.2657,3.2686,3.2683,3.2715,3.2712,3.272,3.2728,3.2783,3.2798,3.277,3.2865,3.284,3.2847,3.2853,3.2861,3.2868,3.2863,3.2749,0,0,0,0,0,3.252,3.2556,3.2585,3.2633,3.2647,3.2664,3.2686,3.2689,3.2718,3.2729,3.2749,3.2778,3.2815,3.2839,3.2874,3.2936,3.2944,3.2964,3.297,3.2976,3.2982,3.3018,3.3028,3.2925,3.2925,3.2925,0,0,3.2541,3.2565,3.2587,3.2637,3.2658,3.2696,3.2674,3.2714,3.2743,3.2735,3.2788,3.2804,3.2836,3.2895,3.2922,3.291,3.3012,3.2981,3.2985,3.2989,3.3024,3.3034,3.3042,3.2928,3.2928,3.2927,0,0,3.26,3.262,3.2664,3.2687,3.272,3.2732,3.2743,3.2775,3.2786,3.2838,3.2834,3.2869,3.2932,3.2956,3.2976,3.3048,3.3043,3.3059,3.3093,3.3129,3.3137,3.3144,3.3171,3.3181,3.3065,3.3065,3.3065,0,3.2621,3.2678,3.2686,3.2728,3.2751,3.2747,3.2792,3.2814,3.2857,3.2874,3.286,3.2941,3.2962,3.3028,3.3046,3.3062,3.3075,3.3055,3.3135,3.3142,3.3149,3.3175,3.3185,3.3067,3.3067,3.3067,3.3067,0,3.2705,3.2744,3.2776,3.2819,3.2845,3.2888,3.2904,3.293,3.2933,3.2947,3.3002,3.3028,3.307,3.3086,3.3088,3.3153,3.3145,3.3133,3.3107,3.3161,3.3185,3.3195,3.307,3.3069,3.3069,3.3068,0,0,3.2772,3.2821,3.2833,3.2854,3.2892,3.2923,3.2968,3.3009,3.3032,3.3063,3.3101,3.3156,3.3147,3.317,3.3175,3.3207,3.3264,3.3191,3.3192,3.3205,3.334,3.3349,3.336,3.3261,3.3263,3.3265,3.3337,0,3.2835,3.2912,3.2923,3.2992,3.303,3.3029,3.3068,3.3096,3.3111,3.3147,3.3163,3.3203,3.3186,3.3201,3.3232,3.325,3.3291,3.3245,3.3298,3.33,3.329,3.3372,3.3381,3.3449,3.3347,3.3349,3.335,0,3.2917,3.2952,3.3025,3.3061,3.3078,3.3112,3.3153,3.3186,3.322,3.3229,3.3257,3.3259,3.3306,3.328,3.3346,3.3315,3.3338,3.3351,3.3353,3.3359,3.3328,3.3381,3.347,3.3481,3.3365,3.3363,3.3362,0,3.2961,3.3026,3.3079,3.3096,3.3139,3.3164,3.3183,3.3215,3.324,3.3276,3.3293,3.3334,3.3356,3.3388,3.3402,3.3381,3.3469,3.3443,3.3479,3.3479,3.3497,3.3496,3.3592,3.3511,3.3511,3.351,3.351,0,3.303,3.3075,3.3099,3.3132,3.3184,3.3196,3.3247,3.3265,3.3294,3.3332,3.3333,3.3368,3.3384,3.3422,3.3434,3.3489,3.3498,3.3508,3.3511,3.3508,3.3507,3.3523,3.3519,3.3513,3.3512,3.3512,3.3511,0,3.3086,3.3104,3.3162,3.3199,3.321,3.3246,3.3278,3.3311,3.3327,3.3374,3.3386,3.3411,3.3457,3.3474,3.3529,3.3537,3.3601,3.3599,3.3589,3.359,3.3626,3.3623,3.3736,3.3752,3.366,3.3661,3.3661,0,3.3129,3.3164,3.3206,3.3231,3.3251,3.3292,3.3318,3.3333,3.336,3.3403,3.3431,3.3477,3.3514,3.3587,3.361,3.3653,3.3653,3.369,3.3659,3.3657,3.3655,3.3653,3.3658,3.3696,3.3696,3.3697,3.3698,0,3.3204,3.3212,3.325,3.3292,3.3324,3.3358,3.339,3.3411,3.3431,3.3463,3.351,3.3538,3.3596,3.3642,3.3687,3.3707,3.3707,3.3708,3.3719,3.3716,3.371,3.3715,3.3606,3.3705,3.3704,3.3703,3.3703,3.3703,3.3255,3.3288,3.3323,3.3366,3.3393,3.3424,3.3457,3.3479,3.3518,3.3566,3.3573,3.3623,3.3659,3.3719,3.3742,3.3783,3.3774,3.3789,3.3793,3.3797,3.38,3.3704,3.3791,3.3791,3.3791,3.3791,3.3791,0,3.3331,3.3354,3.3394,3.3441,3.3476,3.3473,3.351,3.3539,3.3584,3.3617,3.3655,3.371,3.3756,3.3784,3.383,3.3858,3.3859,3.3869,3.3867,3.3873,3.3805,3.3792,3.3868,3.3868,3.3868,3.3868,3.3868,3.3868,3.3375,3.343,3.3443,3.3512,3.3535,3.3585,3.3607,3.3637,3.3664,3.3726,3.3764,3.3782,3.3815,3.3864,3.3906,3.3913,3.3931,3.3942,3.3949,3.3885,3.3877,3.387,3.3857,3.3946,3.3946,3.4013,3.4014,3.4014]},{"header":{"parameterUnit":"m.s-1","parameterCategory":1,"la1":30.2991,"la2":30.254,"lo1":-89.0895,"lo2":-89.0444,"dx":0.0017,"dy":0.0017,"nx":28,"ny":28,"refTime":"2023-01-13T09:00:00:Z","depth":0,"parameterNumber":3,"parameterNumberName":"V-component_of_WINDS"},"data":[0,0,0,0,0,0,0,0,0,0,0,0,0,0,0,0,0,0,0,0,0,0,0,0,0,0,0,0,0,0,0,0,0,0,0,0,0,0,0,0,0,0,0,0,0,0,0,0,0,0,0,0,0,0,0,0,0,0,-7.2915,-7.2917,0,-7.3053,-7.3054,-7.3056,-7.3026,-7.3023,-7.3021,-7.3018,-7.3159,-7.3165,-7.3171,0,0,0,0,0,0,0,0,0,0,0,0,0,-7.2628,-7.2633,-7.2915,-7.2917,-7.2919,-7.3053,-7.3054,-7.3056,-7.3026,-7.3023,-7.302,-7.3017,-7.3157,-7.3164,-7.3172,0,0,0,0,0,0,0,0,0,0,0,0,0,-7.2758,-7.2635,-7.2915,-7.292,-7.2922,-7.3052,-7.3054,-7.3057,-7.3027,-7.3023,-7.3019,-7.3016,-7.3155,-7.3164,-7.3173,-7.3307,0,0,-7.3201,-7.3205,0,0,0,0,0,0,0,0,-7.275,-7.2768,-7.2917,-7.292,-7.2922,-7.3018,-7.3005,-7.3141,-7.3028,-7.2987,-7.3018,-7.3014,-7.3115,-7.3128,-7.3162,-7.3313,-7.3319,-7.3202,-7.3207,-7.3211,-7.3214,0,0,0,0,0,0,0,-7.2741,-7.2762,-7.2969,-7.292,-7.2922,-7.2916,-7.293,-7.303,-7.3071,-7.299,-7.2988,-7.3005,-7.3116,-7.3153,-7.3165,-7.3321,-7.3201,-7.321,-7.3215,-7.3219,-7.3592,-7.3596,0,0,0,0,0,0,-7.273,-7.2755,-7.2965,-7.2974,-7.2825,-7.2924,-7.294,-7.2991,-7.307,-7.3078,-7.3008,-7.3003,-7.3139,-7.3154,-7.317,-7.3334,-7.3211,-7.322,-7.3225,-7.3588,-7.3593,-7.3598,0,0,0,0,0,0,-7.2724,-7.2749,-7.296,-7.2864,-7.289,-7.2933,-7.2991,-7.2996,-7.3033,-7.3084,-7.3091,-7.3039,-7.3137,-7.3157,-7.3273,-7.3338,-7.3224,-7.3232,-7.3583,-7.3589,-7.3596,-7.3661,0,0,0,0,0,0,-7.2716,-7.2747,-7.2798,-7.2865,-7.2895,-7.3061,-7.2995,-7.3001,-7.3049,-7.3044,-7.3114,-7.3122,-7.3135,-7.326,-7.3283,-7.3349,-7.324,-7.3577,-7.3586,-7.3593,-7.3653,-7.3669,-7.3682,0,0,0,0,0,-7.2706,-7.2811,-7.2801,-7.2827,-7.296,-7.3065,-7.3082,-7.3095,-7.3054,-7.3106,-7.3139,-7.312,-7.3327,-7.3272,-7.3297,-7.3367,-7.3573,-7.3583,-7.3593,-7.3647,-7.3666,-7.3682,0,0,0,0,0,0,-7.2749,-7.2819,-7.2809,-7.2939,-7.2996,-7.3059,-7.3125,-7.3115,-7.3184,-7.3177,-7.319,-7.3206,-7.3325,-7.3358,-7.3295,-7.3502,-7.3444,-7.346,-7.3477,-7.3495,-7.351,-7.35,-7.3247,0,0,0,0,0,-7.2774,-7.2853,-7.291,-7.3019,-7.3048,-7.3082,-7.3128,-7.3133,-7.3193,-7.3217,-7.3258,-7.3317,-7.3396,-7.3447,-7.3522,-7.3658,-7.3673,-7.3718,-7.3733,-7.3744,-7.3758,-7.3834,-7.3855,-7.363,-7.363,-7.363,0,0,-7.2826,-7.2874,-7.2923,-7.3029,-7.3074,-7.3156,-7.3102,-7.3191,-7.3252,-7.323,-7.3344,-7.3376,-7.3443,-7.357,-7.3628,-7.3601,-7.3824,-7.3757,-7.3766,-7.3773,-7.3846,-7.3868,-7.3887,-7.3637,-7.3636,-7.3635,0,0,-7.2963,-7.3006,-7.3103,-7.3149,-7.3218,-7.324,-7.3264,-7.3329,-7.335,-7.3464,-7.345,-7.3523,-7.3658,-7.3707,-7.3749,-7.3906,-7.3892,-7.393,-7.4007,-7.4081,-7.4099,-7.4114,-7.4172,-7.4193,-7.3943,-7.3944,-7.3944,0,-7.3018,-7.3141,-7.3153,-7.3245,-7.3292,-7.3277,-7.3375,-7.342,-7.351,-7.3543,-7.3511,-7.3682,-7.3725,-7.3865,-7.3903,-7.3938,-7.3966,-7.3923,-7.4095,-7.4111,-7.4126,-7.4181,-7.4203,-7.3948,-7.3947,-7.3947,-7.3947,0,-7.3207,-7.3293,-7.3363,-7.3451,-7.3506,-7.36,-7.3628,-7.3683,-7.3684,-7.3709,-7.3827,-7.3879,-7.3965,-7.3998,-7.4,-7.4139,-7.412,-7.4092,-7.4034,-7.4152,-7.4204,-7.4225,-7.3954,-7.3953,-7.3951,-7.395,0,0,-7.3374,-7.347,-7.3495,-7.3536,-7.3612,-7.3679,-7.3773,-7.3857,-7.3905,-7.3968,-7.4048,-7.4163,-7.4138,-7.4186,-7.4193,-7.4258,-7.4382,-7.4222,-7.4224,-7.4251,-7.4541,-7.4562,-7.4587,-7.4373,-7.4377,-7.438,-7.4536,0,-7.3519,-7.3685,-7.37,-7.3849,-7.393,-7.3917,-7.3999,-7.4055,-7.4082,-7.4155,-7.4184,-7.4267,-7.4226,-7.4256,-7.4319,-7.4353,-7.444,-7.4342,-7.4448,-7.4452,-7.4433,-7.4614,-7.4637,-7.4781,-7.4556,-7.4559,-7.4562,0,-7.371,-7.3779,-7.3937,-7.4004,-7.4038,-7.4112,-7.4192,-7.4261,-7.4325,-7.434,-7.4395,-7.4394,-7.4492,-7.443,-7.4566,-7.4499,-7.4543,-7.4567,-7.4573,-7.4584,-7.4515,-7.4631,-7.4827,-7.4849,-7.4594,-7.4591,-7.4589,0,-7.3818,-7.3951,-7.4063,-7.4098,-7.4178,-7.4231,-7.4267,-7.4327,-7.4378,-7.4447,-7.4481,-7.4561,-7.4605,-7.4668,-7.4689,-7.4642,-7.4825,-7.4764,-7.4841,-7.4841,-7.488,-7.4878,-7.5088,-7.4907,-7.4907,-7.4906,-7.4906,0,-7.3978,-7.4076,-7.4113,-7.4182,-7.4292,-7.4308,-7.4416,-7.4449,-7.4503,-7.4579,-7.4572,-7.4644,-7.4667,-7.4742,-7.4759,-7.487,-7.489,-7.4906,-7.4909,-7.4907,-7.4905,-7.4937,-7.4928,-7.4912,-7.4911,-7.491,-7.4909,0,-7.4118,-7.4147,-7.4268,-7.4335,-7.4354,-7.4432,-7.4489,-7.4556,-7.4582,-7.4679,-7.4702,-7.4744,-7.4833,-7.486,-7.4966,-7.4978,-7.5109,-7.5102,-7.5087,-7.5088,-7.5164,-7.5157,-7.5402,-7.5436,-7.5232,-7.5234,-7.5235,0,-7.4219,-7.4294,-7.4369,-7.4419,-7.4458,-7.4539,-7.4591,-7.4611,-7.4665,-7.4745,-7.4803,-7.4891,-7.4963,-7.5106,-7.5146,-7.5228,-7.5224,-7.5305,-7.5237,-7.5233,-7.5228,-7.5223,-7.5232,-7.5318,-7.532,-7.5322,-7.5323,0,-7.4396,-7.4407,-7.4482,-7.4564,-7.4626,-7.4691,-7.4754,-7.4796,-7.4824,-7.4886,-7.4977,-7.5033,-7.5143,-7.5231,-7.5315,-7.5352,-7.5344,-7.5344,-7.5367,-7.5366,-7.5355,-7.5363,-7.5124,-7.5339,-7.5337,-7.5336,-7.5335,-7.5335,-7.452,-7.4587,-7.4651,-7.4736,-7.4785,-7.4844,-7.4911,-7.4946,-7.5023,-7.5114,-7.5121,-7.522,-7.5284,-7.5396,-7.5438,-7.5516,-7.5493,-7.5525,-7.5533,-7.5541,-7.5548,-7.5341,-7.5531,-7.5531,-7.5531,-7.553,-7.553,0,-7.4698,-7.4739,-7.4817,-7.4905,-7.4973,-7.4958,-7.5027,-7.5084,-7.5172,-7.5232,-7.5303,-7.5409,-7.5495,-7.5542,-7.5628,-7.5682,-7.5681,-7.5704,-7.5701,-7.571,-7.5563,-7.5536,-7.5705,-7.5705,-7.5705,-7.5704,-7.5704,-7.5704,-7.4799,-7.4912,-7.4931,-7.5069,-7.5109,-7.5206,-7.5247,-7.5302,-7.535,-7.5469,-7.5541,-7.5571,-7.5627,-7.5717,-7.5796,-7.5807,-7.584,-7.5867,-7.5876,-7.5738,-7.572,-7.5703,-7.5678,-7.5874,-7.5874,-7.6017,-7.6018,-7.6019]}]]